Погода в Пуэрто-Барриосе

Гватемала     15°43′19″N   88°35′27″W
темп.,
°C
ветер,
м/с
пор.,
м/с
влажн.,
%
обл.,
%
осадки,
мм/ч
давл.,
гПа
погр.,
м
14 августа, вс
вс1400:00+24вюв129417 1.2 101460
03:00+23ю1295100 0.9 101382
06:00+24ююз1294100 1.3 101370
09:00+28зсз117896 0.1 1014587
12:00+29с227890 1.4 1013757
15:00+30св337020 1.6 1011923
18:00+27всв3684100 1.9 1011350
21:00+25вюв1492100 0.4 1013132
15 августа, пн
пн1500:00+24юв1194100 1.8 101274
03:00+24ююз119578 1.3 101061
06:00+24ююз239543 1.4 101182
09:00+29з11736 0.2 1012574
12:00+30ссз326869 0.3 10111054
15:00+29ссв347776 0.6 1009631
18:00+27всв3691100 1.1 1009298
21:00+25вюв2792100 3.4 1011310
16 августа, вт
вт1600:00+25юв129579 7.3 101185
03:00+24ююз239670 0.6 101093
06:00+24юз239590 0.7 1010104
09:00+28з227629 0.1 1012566
12:00+29ссз327313 0.1 1011791
15:00+30св33676 0.3 10091006
18:00+27всв378459 0.9 1011465
21:00+26в268692 0.1 1012325
17 августа, ср
ср1700:00+24ю129484 0.6 101292
03:00+24ююз2395100 0.4 101084
06:00+24юз249488 1.8 1012146
09:00+26юз238995 1.5 1013339
12:00+26з139297 4.3 1012154
15:00+28с227754 0.3 1010607
18:00+25всв119099 3.9 101163
21:00+24ююв019479 1.8 101354
18 августа, чт
чт1800:00+24юз229498 4.3 101290
03:00+23юз1395100 2.8 1011105
06:00+23юз1395100 3.0 1012139
09:00+26зюз138691 0.4 1013382
12:00+27сз228398 1.9 1012560
15:00+28ссв2277100 0.4 1009615
18:00+26в1291100 1.1 1010100
21:00+25юв1395100 2.4 1012101